Home   Weather   Zwickau   Past weeks

Flag for Germany Past Weather in Zwickau, Saxony, Germany — Yesterday and Last 2 Weeks

Now
36 °F

Clear.


Feels Like: 36 °F
Forecast: 36 / 49 °F
Wind: 2 mph from North

Location: Karlovy Vary Airport

Current Time: Apr 29, 2017 at 12:03:22 am

Latest Report: Apr 28, 2017 at 11:00 pm


Visibility: 10 mi

Pressure: 29.95 "Hg

Humidity: 87%

Dew Point: 32 °F

Location of ZwickauLocation

Past Weather in Zwickau — Graph

°F

Zwickau Temperature Yesterday

Maximum temperature yesterday: 45 °F (at 12:00 pm)
Minimum temperature yesterday: 34 °F (at 6:00 am)
Average temperature yesterday: 40 °F

High & Low Weather Summary for the Past Weeks

 TemperatureHumidityPressure
High54 °F (Apr 24, 4:00 pm)100% (Apr 17, 7:00 am)30.48 "Hg (Apr 17, 7:00 am)
Low23 °F (Apr 21, 1:00 am)35% (Apr 24, 7:00 pm)29.65 "Hg (Apr 25, 5:00 am)
Average40 °F71%30.02 "Hg
* Reported Apr 13 11:00 pm — Apr 28 11:00 pm, Zwickau, Weather by CustomWeather, © 2017

Note: Actual official high and low records may vary slightly from our data, if they occured in-between our weather recording intervals... More about our weather records

Advertising

Zwickau Weather History for the Previous 24 Hours

Scroll right to see more
 ConditionsComfort  
Time TempWeatherWind HumidityBarometerVisibility
11:00 pm
Fri, Apr 28
36 °FClear.2 mph87%29.95 "Hg10 mi
10:00 pm34 °FClear.No wind93%29.92 "Hg10 mi
9:00 pm37 °FClear.No wind87%29.92 "Hg10 mi
8:30 pm39 °FPassing clouds.1 mph75%29.89 "HgN/A
8:00 pm41 °FScattered clouds.2 mph70%29.89 "HgN/A
7:30 pm39 °FPassing clouds.6 mph75%29.89 "HgN/A
7:00 pm41 °FPassing clouds.10 mph70%29.89 "HgN/A
6:30 pm43 °FPassing clouds.6 mph61%29.86 "HgN/A
6:13 pm43 °FScattered clouds.7 mph61%29.86 "HgN/A
6:00 pm43 °FSprinkles. Passing clouds.7 mph61%29.86 "HgN/A
5:30 pm43 °FScattered clouds.6 mph57%29.86 "HgN/A
5:00 pm45 °FPassing clouds.7 mph57%29.86 "HgN/A
4:30 pm45 °FScattered clouds.8 mph57%29.83 "HgN/A
4:00 pm45 °FScattered clouds.9 mph57%29.83 "HgN/A
3:30 pm43 °FBroken clouds.3 mph61%29.83 "HgN/A
3:09 pm43 °FSprinkles. Broken clouds.7 mph61%29.83 "HgN/A
2:30 pm43 °FScattered clouds.6 mph61%29.83 "HgN/A
2:00 pm43 °FBroken clouds.8 mph57%29.83 "HgN/A
1:30 pm45 °FPartly sunny.7 mph53%29.83 "HgN/A
1:00 pm43 °FBroken clouds.8 mph61%29.83 "HgN/A
12:30 pm43 °FBroken clouds.7 mph61%29.80 "HgN/A
12:00 pm45 °FPartly sunny.9 mph57%29.80 "HgN/A
11:30 am43 °FPartly sunny.8 mph61%29.83 "HgN/A
11:00 am43 °FPartly sunny.6 mph66%29.83 "HgN/A
10:30 am41 °FScattered clouds.5 mph76%29.83 "HgN/A
10:00 am39 °FPartly sunny.5 mph81%29.83 "HgN/A
9:30 am39 °FPartly sunny.7 mph75%29.83 "HgN/A
9:00 am37 °FLight rain. Partly sunny.5 mph81%29.83 "HgN/A
8:36 am39 °FLight rain. Partly sunny.7 mph75%29.83 "HgN/A
8:00 am39 °FPartly sunny.6 mph70%29.83 "HgN/A
7:00 am36 °FPassing clouds.No wind81%29.83 "HgN/A
6:00 am34 °FSunny.2 mph87%29.83 "Hg10 mi
5:00 am36 °FClear.2 mph81%29.83 "Hg10 mi
4:00 am36 °FClear.2 mph87%29.83 "Hg10 mi
3:00 am36 °FClear.2 mph87%29.86 "Hg10 mi
2:00 am36 °FClear.3 mph93%29.86 "Hg10 mi
1:00 am36 °FClear.No wind93%29.89 "Hg10 mi
12:00 am36 °FClear.1 mph93%29.89 "Hg10 mi
Weather by CustomWeather, © 2017

See weather overviewHow to use our weather pages